Location: Dumpton Point
(51.3500°N, 1.4433°E)
Time: 11:57:38
(UTC+00:00)

Envisat - Pass Details

Date: 08 December 2021
Orbit: 764 x 766 km, 98.2° (Epoch: 23 January)

Event Time Altitude Azimuth Distance (km) Brightness Sun altitude
Rises 17:42:28 0° 225° (SW) 3,225 7.3 -17.0°
Reaches altitude 10° 17:46:39 10° 259° (WSW) 2,307 6.8 -17.7°
Maximum altitude 17:48:13 11° 277° (W) 2,219 6.4 -17.9°
Drops below altitude 10° 17:49:47 10° 295° (WNW) 2,312 6.2 -18.1°
Sets 17:54:00 0° 329° (NNW) 3,246 6.5 -18.8°
